Location: Augirein
(42.9320°N, 0.9181°E)
Time: 19:18:02
(UTC+00:00)

Cosmos 1515 Rocket - Pass Details

Date: 20 June 2021
Orbit: 607 x 629 km, 82.5° (Epoch: 31 July)

Event Time Altitude Azimuth Distance (km) Brightness Sun altitude
Rises 02:56:29 0° 355° (N) 2,909 7.7 -11.9°
Reaches altitude 10° 02:58:45 10° 358° (N) 2,001 6.9 -11.7°
Maximum altitude 03:03:09 62° 80° (E) 705 4.1 -11.1°
Drops below altitude 10° 03:07:32 10° 161° (SSE) 1,997 5.9 -10.6°
Sets 03:09:47 0° 165° (SSE) 2,901 6.7 -10.3°
